Location: Gull Harbor
(47.1000°N, 122.9000°W)
Time: 03:46:00
(UTC-08:00)

ARIANE 6 FM1 Upper Stage - Visible Passes

Search period start: 07 February 2026 00:00
Search period end: 17 February 2026 00:00
Orbit: 522 x 609 km, 62.0° (Epoch: 7 February)

Date Brightness Start Highest point End Pass type
(mag) Time Alt. Az. Time Alt. Az. Time Alt. Az.
7 Feb 5.0 19:18:37 10° N 19:19:47 11° N 19:19:47 11° N visible
8 Feb 4.8 19:18:23 10° N 19:19:56 13° NNE 19:19:56 13° NNE visible
9 Feb 4.6 19:18:11 10° NNW 19:20:06 15° NNE 19:20:06 15° NNE visible
10 Feb 4.4 19:17:59 10° NNW 19:20:18 18° NNE 19:20:18 18° NNE visible
11 Feb 4.1 19:17:49 10° NNW 19:20:32 22° NNE 19:20:32 22° NNE visible
11 Feb 5.8 20:56:24 10° NW 20:56:33 11° NW 20:56:33 11° NW visible
12 Feb 3.7 19:17:40 10° NNW 19:20:49 27° NNE 19:20:49 27° NNE visible
12 Feb 5.7 20:56:28 10° NW 20:56:50 12° NW 20:56:50 12° NW visible
13 Feb 3.3 19:17:31 10° NNW 19:21:10 35° NE 19:21:10 35° NE visible
13 Feb 5.6 20:56:37 10° WNW 20:57:12 13° WNW 20:57:12 13° WNW visible
14 Feb 2.8 19:17:23 10° NNW 19:21:14 48° NE 19:21:37 46° ENE visible
14 Feb 5.6 20:56:52 10° WNW 20:57:39 14° WNW 20:57:39 14° WNW visible
15 Feb 2.4 19:17:17 10° NW 19:21:14 67° NE 19:22:10 48° ESE visible
15 Feb 5.6 20:57:23 10° W 20:58:13 13° W 20:58:13 13° W visible
16 Feb 2.5 19:17:14 10° NW 19:21:12 86° SW 19:22:52 34° SE visible
16 Feb 5.7 20:58:41 10° W 20:58:55 10° WSW 20:58:55 10° WSW visible
